Regional Weather Roundup
Issued by NWS Midland/Odessa, TX

Skip options and go directly to product.
Home | Oldest Version | Previous Version | Current Version | All | Text Only | Save Text | Print | Product List | Glossary Off

Skip product version selection by date and time.   

733
ASUS44 KMAF 011210
RWRMAF
MIDLAND AREA WEATHER ROUNDUP
NATIONAL WEATHER SERVICE MIDLAND TX
700 AM CDT MON SEP 01 2014

...IN SOUTHWEST TEXAS AND SOUTHEAST NEW MEXICO...

CITY           SKY/WX    TMP DP  RH WIND       PRES   REMARKS
ALPINE         CLEAR     71  57  61 SW6       30.09S
ANDREWS        FAIR      76  62  61 S12       29.93R
ARTESIA        NOT AVBL
BIG SPRING     CLEAR     79  67  65 S17       29.92S
CARLSBAD       CLEAR     68  55  63 SW3       29.91R
DRYDEN           N/A     80  65  59 E8        29.91R
FORT STOCKTON  CLEAR     75  62  64 S13       29.92S
GUAD PASS      CLEAR     71  44  37 SW10      30.10R
HOBBS          CLEAR     72  61  68 S7        29.95
MARFA          CLEAR     59  54  82 N6        30.10R
MIDLAND AIRPK  NOT AVBL
MIDLAND INTL   CLEAR     78  63  59 S14       29.91S
ODESSA         CLEAR     78  62  57 S15       29.93R
PECOS          CLEAR     69  58  67 E7        29.88R
PRESIDIO       FAIR      80  61  52 N8        29.92R
SEMINOLE       CLEAR     73  61  64 S7        29.94R
SNYDER         CLEAR     75  67  76 S14       29.90S
WINK           CLEAR     78  63  59 SE9       29.88R
$$
...OTHER STATIONS IN TEXAS...

CITY           SKY/WX    TMP DP  RH WIND       PRES   REMARKS
ABILENE        CLEAR     77  69  76 S15G24    29.88R
AMARILLO       CLEAR     70  57  63 W7        29.91R
AUSTIN         PTCLDY    77  75  93 S7        29.93S
BROWNSVILLE    PTCLDY    79  78  97 SE3       29.88R
CORPUS CHRISTI PTCLDY    78  77  96 SE5       29.90R
DALLAS FTW     PTCLDY    78  71  79 S16       29.89R
DEL RIO        CLEAR     79  71  76 E9        29.89R
EL PASO        CLEAR     76  42  29 S5        29.97R
HOUSTON INT    PTCLDY    73  73 100 CALM      29.95R
LUBBOCK        PTCLDY    76  61  59 SW17G28   29.90R
SAN ANGELO     CLEAR     76  69  79 S15G23    29.91R
SAN ANTONIO    CLOUDY    79  74  84 S8        29.94R
WACO           MOCLDY    77  73  87 S13       29.93R
WICHITA FALLS  NOT AVBL
$$
...OTHER LOCATIONS IN NEW MEXICO...

CITY           SKY/WX    TMP DP  RH WIND       PRES   REMARKS
ALAMAGORDO     CLEAR     63  39  42 CALM      30.00R
ALBUQUERQUE    CLEAR     64  40  41 SE7       30.09R
CANNON AFB     CLEAR     64  59  84 W5        29.96R
CLOVIS           N/A     66  55  68 SW8       29.98R
HOLLOMAN AFB   CLEAR     68  41  37 SE6       29.98R
ROSWELL        CLEAR     65  45  48 SW8       29.93R
RUIDOSO        CLEAR     63  36  36 NW9       30.22R
SANTA FE       CLEAR     51  38  60 N7        30.13R
TRUTH OR CONSE CLEAR     72  41  32 NW7       30.05R
TUCUMCARI      CLEAR     65  52  62 N7        29.97R
$$

USA.gov is the U.S. government's official web portal to all federal, state and local government web resources and services.